Погода в Партизанске

Погода в Партизанске : погода сейчас, прогноз погоды и архив. Всё, что Вы хотите узнать о погоде в Партизанске!

Хотите узнать прогноз погоды в Партизанске? Тогда Вам сюда: Погода в Партизанске

Поиск расширенной информации на нашем сайте:

Другие новости

Новости СМИ2

Главная страница сайта

Новости сайта

03.07.2017

Напоминаем, что на нашем специализированном сайте Метеоцентр.Азия вы можете получить высокодетализированные автоматические прогнозы погоды по пунктам России, СНГ и мира в авиационном формате (включающие направление и скорость ветра, видимость, явления погоды, количество и форму облачности, нижнюю и верхнюю границу облачности).

Рекомендуем: Применяйте для похудения пластыри SOSO - новейшая разработка!

Погода в Партизанске - сегодня

Время (UTC), дата Ветер
(°,м/с) 
Видим.   Явления Облачность Т
(°С)
Тd
(°С)
f(%) Тe
(°С)
Pmin
(гПа)
dP
(гПа)
Po
(мм)
O2
(г/м3)
Тmin Tmax R s Состояние
почвы
06 16.08.17 190 (Ю) 20000 м    10/8 600 м средняя 
[Sc|Ac As]
+21.6 +15.7 69 +32  1011.2  0.2  741  273           
09 16.08.17 240 (ЮЗ) 20000 м    10/10 600 м 
[Sc]
+19.7 +15.6 77 +31  1011.4  0.1  741  275    +24.5       
12 16.08.17 220 (ЮЗ) 20000 м    8/3 600 м средняя, верхняя 
[St|As trans|Cs]
+18 +16.1 89 +30  1012.8  1.2  742  277           
15 16.08.17 340 (С) 4000 м  туман на расстоянии  9/9 600 м 
[St]
+16.6 +15.8 95 +28  1013.2  0.2  742  278           
18 16.08.17 310 (СЗ) 4000 м  туман на расстоянии  9/8 600 м средняя, верхняя 
[St|Ac lent|Cs]
+16.2 +15.4 95 +28  1013.1  0.1  742  279           
21 16.08.17 тихо ()   0500 м  туман  ?/?  
+16.3 +15.7 96 +27  1013.9  0.8  742  279  +16.1        сухая 
00 17.08.17 330 (СЗ) 20000 м  в посл. час туман  8/4 600 м средняя 
[St|Ac cast]
+20.1 +16.3 79 +31  1013.7  0.1  742  275  +16         
03 17.08.17 180 (Ю) 20000 м    8/8 600 м средняя 
[Cu med, cong|Ac trans]
+25.3 +16.7 59 +37  1012.3  -1  742  270           
06 17.08.17 220 (ЮЗ) 20000 м    8/6 600 м кучево-дожд., средняя 
[Cb calv|Ac lent]
+22.4 +16.7 70 +35  1011.7  -0.7  741  272           
09 17.08.17 180 (Ю) 20000 м  {ливн. осадки}  10/8 1000 м средняя, верхняя 
[Sc diur, vesp|Ac trans|Cc]
+19.6 +15 75 +29  1012.7  0.7  741  276    +25.3  0.0     
12 17.08.17 200 (Ю) 20000 м  {ливн. осадки}  10/10 1000 м 
[Sc]
+17.7 +14.8 83 +28  1014  1.1  742  278           
15 17.08.17 тихо ()   20000 м    10/10 600 м 
[Sc]
+17.3 +15.2 87 +27  1014.1  0.1  742  278           
18 17.08.17 050 (СВ) 20000 м    10/10 600 м 
[Sc]
+17 +14.9 87 +27  1013.8  -0.3  742  278           
21 17.08.17 010 (С) 20000 м    9/9 1000 м 
[Sc]
+17.3 +14.7 85 +26  1014.4  0.5  743  278  +16.8        сухая 
00 18.08.17 050 (СВ) 20000 м    4/3 1000 м верхняя 
[Sc|Ci fib]
+21.2 +16.8 76 +33  1013.6  -0.4  742  274           
03 18.08.17 170 (Ю) 20000 м    8/3 1000 м верхняя 
[Cu med, cong|Cc]
+25.2 +16.5 59 +37  1013.2  -0.1  742  270           
06 18.08.17 190 (Ю) 20000 м    3/3 1000 м кучево-дожд., верхняя 
[Cb cap|Ci fib]
+25.8 +17.5 60 +39  1012.1  -1  741  269           
09 18.08.17 180 (Ю) 20000 м    5/4 1000 м средняя 
[Sc diur, vesp|Ac trans]
+20.9 +17 78 +34  1013  0.5  742  274    +27.3       
12 18.08.17 170 (Ю) 20000 м    5/5 1000 м 
[Sc]
+17.9 +16.5 92 +31  1014.7  1.5  743  277           
15 18.08.17 340 (С) 0200 м  туман  ?/?  
+16.8 +16.2 96 +29  1015.4  0.6  743  279           
18 18.08.17 170 (Ю) 0200 м  туман  ?/?  
+16.9 +16.3 96 +29  1014.8  -0.6  743  278           
21 18.08.17 тихо ()   0200 м  туман  ?/?  
+16.9 +16.3 96 +28  1015.5  0.6  743  278  +16.5        сухая 
00 19.08.17 030 (СВ) 20000 м  {туман}  1/1 600 м 
[Cu hum]
+22.2 +17.7 76 +36  1015.2  0.2  744  273           
03 19.08.17 150 (ЮВ) 20000 м    3/3 1000 м 
[Cu med, cong]
+28 +16.7 50 +40  1013.8  -0.9  743  268           
06 19.08.17 190 (Ю) 20000 м    3/3 600 м кучево-дожд. 
[Cb calv]
+26.8 +17.7 57 +41  1012.6  -1.3  742  268           
Время (UTC), дата Ветер
(°,м/с) 
Видим.   Явления Облачность Т
(°С)
Тd
(°С)
f(%) Тe
(°С)
Pmin
(гПа)
dP
(гПа)
Po
(мм)
O2
(г/м3)
Тmin Tmax R s Состояние
почвы

Для получения пояснительной информации подведите курсор к названию столбца.

ПОГОДА в Партизанске - архив

Всё, что Вы хотите узнать о погоде в Партизанске - удобно и подробно!

Выберите нужную дату (начиная с 1 января 2015* года) и нажмите кнопку "Найти".
Будут отображены архивные сводки погоды по пункту Партизанск, начиная с указанной даты.


Отображать данные в формате CSV (для использования в таблицах Excel)


Внимание! Наш архив погоды предназначен исключительно для личного некоммерческого использования в познавательных целях. Если Вам необходимы официальные справки о состоянии погоды (для производственных, юридических, коммерческих и т.п. целей), обращайтесь в органы Росгидромета.

*Примечание: данная дата относится к архиву по метеостанциям СССР (Россия, СНГ, Балтия).
Архив по метеостанциям Зарубежной Европы и Азии (кроме Китая) хранится 10 дней, по другим регионам земного шара (Китай, Африка, Америка, Австралия, Океания) - 1 день.

Партизанск - район местоположения метеостанции


Название, широта, долгота, высота метеостанции:
Партизанск 43.2°ш. 133°д. 208 м над ур. моря [Российская Федерация]

Дополнительная информация

В oтличие oт бoльшинства пoгoдных сайтoв мы публикуем пoдрoбную метеoинфoрмацию в детальнoм прoфессиoнальнoм фoрмате.

Характеристики температуры и влажнoсти вoздуха измеряются на высoте 2 м в тени вдали oт зданий и деревьев.
Скoрoсть ветра измеряется на высoте 10 м (на урoвне рoста челoвека скoрoсть ветра ниже в 1.5-2 раза). Если метеoстанция нахoдится в гoрoде или в лесу, тo скoрoсть ветра занижена на 2-4 м/с пo сравнению с oткрытым местoм. Скoрoсть ветра над акватoриями крупных рек и oзёр, а также на вершинах хoлмoв на 2-5 м/с выше, чем в oбычных услoвиях.
Атмoсфернoе давление в разных тoчках местнoсти мoжет значительнo oтличаться oт давления на метеoстанции, в зависимoсти oт услoвий рельефа (при пoдъёме на 10 м давление пoнижается примернo на 1 мм рт.ст.).